This demonstration page uses our WeatherBlox Daily Observations layout. Learn more.

Left ArrowRight Arrow

Hourly Observations for January 7, 2021

Temp ( °F °C ) Dew Point ( °F °C ) Humidity (%) Winds ( mph kmh ) Pressure ( in mb ) Visibility ( mi km ) Precip ( " mm )
12:53 am 00:53 Cloudy 34 1.1 25 -3.9 70 70 SSW 3 6 30.06 1018 10 16 0.00 0.00
1:53 am 01:53 Mostly Cloudy 34 1.1 25 -3.9 70 70 NW 5 7 30.07 1018 10 16 0.00 0.00
2:53 am 02:53 Cloudy 34 1.1 25 -3.9 70 70 Calm 30.08 1019 10 16 0.00 0.00
3:53 am 03:53 Cloudy 34 1.1 26 -3.3 73 73 N 3 6 30.10 1019 10 16 0.00 0.00
4:53 am 04:53 Cloudy 34 1.1 27 -2.8 76 76 W 3 6 30.13 1020 10 16 0.00 0.00
5:53 am 05:53 Cloudy 35 1.7 27 -2.8 72 72 Calm 30.15 1021 10 16 0.00 0.00
6:53 am 06:53 Cloudy 35 1.7 27 -2.8 72 72 SW 3 6 30.15 1021 10 16 0.00 0.00
7:53 am 07:53 Cloudy 35 1.7 27 -2.8 72 72 W 5 7 30.17 1022 10 16 0.00 0.00
8:53 am 08:53 Cloudy 35 1.7 28 -2.2 76 76 SW 7 11 30.20 1023 10 16 0.00 0.00
9:53 am 09:53 Cloudy 37 2.8 28 -2.2 70 70 SW 6 9 30.22 1024 10 16 0.00 0.00
10:53 am 10:53 Cloudy 39 3.9 29 -1.7 67 67 SW 8 13 30.24 1024 10 16 0.00 0.00
11:53 am 11:53 Cloudy 40 4.4 31 -0.6 70 70 SSW 10 17 30.24 1024 10 16 0.00 0.00
12:53 pm 12:53 Mostly Cloudy 42 5.6 33 0.6 71 71 SSW 8 13 30.24 1024 10 16 0.00 0.00
1:53 pm 13:53 Mostly Cloudy 43 6.1 34 1.1 71 71 SW 9 15 30.26 1025 10 16 0.00 0.00
2:53 pm 14:53 Cloudy 43 6.1 35 1.7 74 74 WSW 12 19 30.26 1025 10 16 0.00 0.00
3:53 pm 15:53 Cloudy 40 4.4 35 1.7 83 83 WSW 6 9 30.30 1026 10 16 0.00 0.00
4:53 pm 16:53 Clear 36 2.2 34 1.1 93 93 Calm 30.32 1027 10 16 0.00 0.00
5:53 pm 17:53 Clear 33 0.6 31 -0.6 92 92 S 5 7 30.34 1028 10 16 0.00 0.00
6:27 pm 18:27 Clear with Mist and Fog 30 -1.1 28 -2.2 92 92 Calm 30.38 1029 2 3 0.00 0.00
6:37 pm 18:37 Clear with Mist and Fog 32 0 30 -1.1 92 92 SSE 6 9 30.37 1028 3 5 0.00 0.00
6:53 pm 18:53 Clear 29 -1.7 28 -2.2 96 96 Calm 30.37 1028 10 16 0.00 0.00
7:38 pm 19:38 Mostly Clear with Mist and Fog 29 -1.7 28 -2.2 96 96 W 5 7 30.41 1030 3 4 0.00 0.00
7:40 pm 19:40 Partly Cloudy with Mist and Fog 28 -2.2 27 -2.8 96 96 WSW 5 7 30.42 1030 1 2 0.00 0.00
7:42 pm 19:42 Mostly Cloudy with Mist and Fog 28 -2.2 27 -2.8 96 96 WSW 5 7 30.42 1030 1 1 0.00 0.00
7:53 pm 19:53 Mostly Cloudy with Freezing Fog 27 -2.8 25 -3.9 92 92 WSW 5 7 30.38 1029 0 0 0.00 0.00
8:07 pm 20:07 Mostly Cloudy with Freezing Fog 26 -3.3 25 -3.9 96 96 WSW 3 6 30.43 1030 1 1 0.00 0.00
8:14 pm 20:14 Mostly Cloudy with Freezing Fog 26 -3.3 24 -4.4 92 92 WSW 3 6 30.43 1030 0 0 0.00 0.00
8:33 pm 20:33 Mostly Cloudy with Freezing Fog 24 -4.4 23 -5 96 96 Calm 30.45 1031 1 1 0.00 0.00
8:53 pm 20:53 Mostly Cloudy with Mist and Fog 26 -3.3 25 -3.9 96 96 Calm 30.39 1029 1 1 0.00 0.00
9:17 pm 21:17 Mostly Cloudy with Freezing Fog 24 -4.4 22 -5.6 91 91 ENE 3 6 30.46 1031 0 0 0.00 0.00
9:44 pm 21:44 Mostly Cloudy with Freezing Fog 25 -3.9 24 -4.4 96 96 Calm 30.46 1032 1 1 0.00 0.00
9:53 pm 21:53 Mostly Cloudy with Freezing Fog 25 -3.9 23 -5 92 92 Calm 30.40 1030 1 1 0.00 0.00
10:02 pm 22:02 Mostly Cloudy with Freezing Fog 22 -5.6 20 -6.7 92 92 Calm 30.48 1032 0 0 0.00 0.00
10:13 pm 22:13 Mostly Cloudy with Freezing Fog 22 -5.6 21 -6.1 96 96 SSE 5 7 30.48 1032 1 1 0.00 0.00
10:34 pm 22:34 Cloudy with Mist and Fog 22 -5.6 21 -6.1 96 96 Calm 30.49 1033 2 2 0.00 0.00
10:42 pm 22:42 Cloudy with Mist and Fog 23 -5 22 -5.6 96 96 Calm 30.49 1032 2 3 0.00 0.00
10:51 pm 22:51 Cloudy with Mist and Fog 25 -4 23 -5 93 93 Calm 30.48 1032 1 2 0.00 0.00
10:53 pm 22:53 Cloudy with Mist and Fog 24 -4.4 23 -5 96 96 Calm 30.42 1030 1 2 0.00 0.00
11:01 pm 23:01 Cloudy with Mist and Fog 25 -3.9 24 -4.4 96 96 Calm 30.48 1032 2 3 0.00 0.00
11:03 pm 23:03 Cloudy with Mist and Fog 26 -3.3 25 -3.9 96 96 Calm 30.48 1032 3 5 0.00 0.00
11:36 pm 23:36 Cloudy with Mist and Fog 27 -2.8 26 -3.3 96 96 Calm 30.47 1032 3 5 0.00 0.00
11:38 pm 23:38 Cloudy with Mist and Fog 27 -2.8 26 -3.3 96 96 Calm 30.47 1032 1 2 0.00 0.00
11:45 pm 23:45 Mostly Cloudy with Freezing Fog 27 -2.8 26 -3.3 96 96 Calm 30.47 1032 0 0 0.00 0.00
11:53 pm 23:53 Mostly Cloudy with Freezing Fog 27 -2.8 26 -3.3 96 96 Calm 30.42 1030 0 0 0.00 0.00

Powered by AerisWeather